This demonstration page uses our WeatherBlox Daily Observations layout. Learn more.

Left ArrowRight Arrow

41.86663, -103.66717

Hourly Observations for July 24, 2017

Temp ( °F °C ) Dew Point ( °F °C ) Humidity (%) Winds ( mph kmh ) Pressure ( in mb ) Visibility ( mi km ) Precip ( " mm )
12:53 am 00:53 Clear 79 26.1 50 10 36 36 SSW 10 17 29.82 1010 10 16 0.00 0.00
1:53 am 01:53 Clear 78 25.6 52 11.1 40 40 SSW 13 20 29.80 1009 10 16 0.00 0.00
2:53 am 02:53 Clear 78 25.6 52 11.1 40 40 S 12 19 29.80 1009 10 16 0.00 0.00
3:53 am 03:53 Clear 77 25 54 12.2 45 45 SSW 12 19 29.79 1009 10 16 0.00 0.00
4:53 am 04:53 Clear 76 24.4 56 13.3 50 50 SE 9 15 29.79 1009 10 16 0.00 0.00
5:53 am 05:53 Sunny 76 24.4 57 13.9 52 52 SSE 9 15 29.79 1009 10 16 0.00 0.00
6:53 am 06:53 Mostly Sunny 78 25.6 57 13.9 48 48 SSE 8 13 29.80 1009 10 16 0.00 0.00
7:53 am 07:53 Sunny 80 26.7 58 14.4 47 47 SE 5 7 29.80 1009 10 16 0.00 0.00
8:53 am 08:53 Sunny 83 28.3 58 14.4 43 43 SSE 9 15 29.80 1009 10 16 0.00 0.00
9:53 am 09:53 Sunny 86 30 58 14.4 39 39 SSE 6 9 29.80 1009 10 16 0.00 0.00
10:53 am 10:53 Sunny 91 32.8 54 12.2 28 28 VRB 6 9 29.77 1008 10 16 0.00 0.00
11:53 am 11:53 Sunny 93 33.9 53 11.7 26 26 W 5 7 29.76 1008 10 16 0.00 0.00
12:53 pm 12:53 Sunny 96 35.6 39 3.9 14 14 W 7 11 29.74 1007 10 16 0.00 0.00
1:53 pm 13:53 Sunny 99 37.2 41 5 14 14 WNW 9 15 29.73 1007 10 16 0.00 0.00
2:53 pm 14:53 Sunny 100 37.8 37 2.8 11 11 VRB 7 11 29.71 1006 10 16 0.00 0.00
3:53 pm 15:53 Sunny 101 38.3 37 2.8 11 11 W 7 11 29.70 1006 10 16 0.00 0.00
4:53 pm 16:53 Sunny 102 38.9 38 3.3 11 11 NNW 6 9 29.68 1005 10 16 0.00 0.00
5:53 pm 17:53 Sunny 98 36.7 43 6.1 15 15 NW 6 9 29.69 1005 10 16 0.00 0.00
6:53 pm 18:53 Sunny 96 35.6 53 11.7 23 23 E 3 6 29.68 1005 10 16 0.00 0.00
7:53 pm 19:53 Sunny 85 29.4 56 13.3 37 37 E 13 20 29.72 1006 10 16 0.00 0.00
8:53 pm 20:53 Clear 78 25.6 57 13.9 48 48 ESE 7 11 29.74 1007 10 16 0.00 0.00
9:53 pm 21:53 Clear 76 24.4 55 12.8 48 48 E 8 13 29.76 1008 10 16 0.00 0.00
10:53 pm 22:53 Clear 75 23.9 55 12.8 50 50 E 6 9 29.77 1008 10 16 0.00 0.00
11:53 pm 23:53 Clear 81 27.2 52 11.1 37 37 SE 10 17 29.77 1008 10 16 0.00 0.00

Powered by AerisWeather